Tracking 31027 objects as of 19-Jul-2025
HD Live streaming from Space Station
objects crossing your sky now

STARLINK-32180

Track STARLINK-32180 now!
10-day predictions
STARLINK-32180 is classified as:


NORAD ID: 60374
Int'l Code: 2024-138V
Perigee: 481.5 km
Apogee: 483.3 km
Inclination: 53.2 °
Period: 94.1 minutes
Semi major axis: 6853 km
RCS: Unknown
Launch date: August 4, 2024
Source: United States (US)
Launch site: AIR FORCE WESTERN TEST RANGE (AFWTR)
Your satellite tracking list
Your tracking list is empty




NASA's NSSDC Master Catalog

Two Line Element Set (TLE):
1 60374U 24138V   25199.51957064 -.00000009  00000-0  11841-4 0  9990
2 60374  53.1611 317.4014 0001283  94.7367 265.3780 15.30187399 54779
Source of the keplerian elements: AFSPC